Regional Weather Roundup
Issued by NWS

Home | Current Version | Previous Version | Graphics & Text | Print | Product List | Glossary On
Versions: 1 2 3 4 5 6 7 8 9 10 11 12 13 14 15 16 17 18 19 20 21 22 23 24 25 26 27 28 29 30 31 32 33 34 35 36 37 38 39 40 41 42 43 44 45 46 47 48 49 50
000
ASUS43 KDMX 042207
RWRIA

WEATHER ROUNDUP FOR IOWA
NATIONAL WEATHER SERVICE DES MOINES IA
500 PM CDT SAT JUL 04 2015

NOTE: "FAIR" INDICATES FEW OR NO CLOUDS BELOW 12,000 FEET WITH NO
SIGNIFICANT WEATHER AND/OR OBSTRUCTIONS TO VISIBILITY.

* - THESE STATIONS ARE NOT NWS STATIONS...THUS NOT UNDER NWS
QUALITY CONTROL.  THEY ALSO DO NOT REPORT WEATHER SUCH
AS PRECIPITATION OR FOG.

IAZ001>003-012>014-020>022-031>034-043>046-042300-
   NORTHWEST IOWA

CITY           SKY/WX    TMP DP  RH WIND       PRES   REMARKS
CARROLL *      SUNNY     81  59  47 S9G16     29.96F HX  81
CHEROKEE *     SUNNY     79  63  57 S10       29.94F HX  80
DENISON *      SUNNY     79  61  53 VRB6G13   29.94F HX  80
LE MARS *      SUNNY     81  66  61 S15       29.93F HX  83
ORANGE CITY *  SUNNY     81  64  57 S12       29.94S HX  82
SHELDON *      SUNNY     81  66  61 S12G17    29.92F HX  83
SIOUX CITY     PTSUNNY   81  65  58 S12       29.93S HX  83
SPENCER        MOSUNNY   82  58  43 S10G18    29.94F HX  82
STORM LAKE *   SUNNY     79  59  50 S9        29.97S HX  80
$$

IAZ055>058-069>071-079>083-090>094-042300-
   SOUTHWEST IOWA

CITY           SKY/WX    TMP DP  RH WIND       PRES   REMARKS
ATLANTIC *     SUNNY     81  61  50 SW8       29.96F HX  81
AUDUBON *      SUNNY     81  59  47 S8        29.98F HX  81
CLARINDA *     SUNNY     82  59  44 S7        29.98S HX  82
COUNCIL BLFS * SUNNY     79  63  57 S13       29.96F HX  80
CRESTON *      SUNNY     79  59  50 S5G12     29.98F HX  80
HARLAN  *      SUNNY     79  63  57 SW10      29.99F HX  80
LAMONI         SUNNY     81  60  48 VRB5      29.98F HX  82
RED OAK *      SUNNY     81  61  50 S9        29.96F HX  81
SHENANDOAH *   SUNNY     82  61  47 S7G15     29.96F HX  83
$$

IAZ047>049-059>061-072>074-084-042300-
   CENTRAL IOWA

CITY           SKY/WX    TMP DP  RH WIND       PRES   REMARKS
AMES           MOSUNNY   80  59  48 S8        29.97F HX  81
ANKENY *       SUNNY     81  61  50 SE6       29.96F HX  81
CHARITON *     SUNNY     81  61  50 SE7       29.98F HX  81
DES MOINES     PTSUNNY   82  58  43 S8        29.96F HX  82
GRINNELL*      SUNNY     79  59  50 S5        30.00S HX  80
KNOXVILLE *    SUNNY     81  57  44 S6        29.97F HX  81
MARSHALLTOWN   SUNNY     79  62  56 S7        29.97F HX  80
PELLA *        MOSUNNY   82  64  54 SW5       29.99F HX  84
PERRY *          N/A     81  57  44 SW6       29.97S HX  81
$$

IAZ004>006-015-016-023>025-035-036-042300-
   NORTH CENTRAL IOWA

CITY           SKY/WX    TMP DP  RH WIND       PRES   REMARKS
ALGONA *       SUNNY     79  61  53 S12       29.97S HX  80
CLARION *      SUNNY     81  59  47 SW10      29.97F HX  81
ESTHERVILLE    MOSUNNY   79  62  56 S13       29.95S HX  80
FORT DODGE *   MOSUNNY   81  59  47 SW9       29.98S HX  81
MASON CITY     SUNNY     81  58  45 S9        29.98F HX  81
FOREST CITY *  SUNNY     77  57  50 SW7       29.97S
IOWA FALLS *     N/A     79  61  53 S6        29.99F HX  80
$$

IAZ007>011-017>019-026>030-037>042-050>054-066-042300-
   NORTHEAST IOWA

CITY           SKY/WX    TMP DP  RH WIND       PRES   REMARKS
CEDAR RAPIDS   SUNNY     78  63  59 S5        29.98F HX  80
CHARLES CITY * SUNNY     79  63  57 SW7G14    29.99S HX  80
CLINTON *      PTSUNNY   79  61  53 W6        30.02F HX  80
DECORAH *        N/A    N/A N/A N/A MISG        N/A
DUBUQUE        SUNNY     79  59  50 W5        30.00F HX  80
MONTICELLO *   SUNNY     81  61  50 S8        29.99S HX  81
OELWEIN *      SUNNY     79  61  53 SW7       30.00S HX  80
WATERLOO       SUNNY     80  59  48 S8        29.97F HX  81
$$

IAZ064-065-067-068-078-042300-
   EAST CENTRAL IOWA

CITY           SKY/WX    TMP DP  RH WIND       PRES   REMARKS
DAVENPORT      SUNNY     78  59  51 CALM      30.00F
IOWA CITY      SUNNY     80  61  52 VRB3      29.99F HX  81
MT. PLEASANT * SUNNY     82  55  39 S3        29.98F HX  82
MUSCATINE *    SUNNY     81  57  44 CALM      29.99F HX  81
QUAD CITIES    SUNNY     79  60  52 S7        29.99F HX  80
$$

IAZ062-063-075>077-085>089-095>099-042300-
   SOUTHEAST IOWA

CITY           SKY/WX    TMP DP  RH WIND       PRES   REMARKS
BURLINGTON     SUNNY     81  61  50 CALM      29.99F HX  82
FAIRFIELD *    SUNNY     79  59  50 SW3       29.99S HX  80
FORT MADISON * SUNNY     79  63  57 CALM      30.00F HX  80
KEOKUK *       SUNNY     79  63  57 S5        29.98F HX  80
OSKALOOSA *      N/A     79  61  53 S3        29.99S HX  80
CENTERVILLE *  SUNNY     79  59  50 S5        30.00F HX  80
OTTUMWA        SUNNY     79  62  56 S5        29.97F HX  80
WASHINGTON *   SUNNY     79  61  53 CALM      30.00F HX  80
$$

ABBREVIATIONS USED IN REMARKS
   TC - TEMPERATURES IN CELSIUS
  WCI - WIND CHILL INDEX
   HX - HEAT INDEX
  VSB - VISIBILITY
$$



USA.gov is the U.S. government's official web portal to all federal, state and local government web resources and services.